Погода в Ивано-Франковске

Украина / Ивано-Франковская область     48°55′21″N   24°42′39″E
темп.,
°C
ветер,
м/с
пор.,
м/с
влажн.,
%
обл.,
%
осадки,
мм/ч
давл.,
гПа
погр.,
м
27 ноября, сб
сб2723:00+3юв2381100 0.0 99471
02:00+5ююв3877100 0.0 993165
05:00+7ююз2579100 0.0 993111
08:00+5з2379100 0.0 99546
11:00+7сз246258 0.0 998366
14:00+9зюз1454100 0.0 998663
17:00+6ю1174100 0.0 100015
20:00+4ю228088 0.0 100124
28 ноября, вс
вс2823:00+4ююв228532 0.0 100213
02:00+3ююв2286100 0.0 100221
05:00+4вюв1182100 0.0 100112
08:00+4в1181100 0.1 100016
11:00+6юв1273100 0.0 1000112
14:00+7вюв2373100 0.0 999123
17:00+6юв2281100 0.0 99721
20:00+5юв3481100 0.0 99761
29 ноября, пн
пн2923:00+6юв3584100 0.0 99589
02:00+6юв2483100 0.0 99283
05:00+5юв2282100 0.0 99015
08:00+5з4784100 0.0 991160
11:00+3сз61274100 0.4 995671
14:00+3сз8137498 0.4 996718
17:00+2сз8147184 0.0 998732
20:00+1зсз713736 0.0 1000753
30 ноября, вт
вт3023:000зсз8137661 0.0 1001725
02:00+1зсз9136481 0.0 1003988
05:000зсз6136940 0.0 1004707
08:00−1зсз7146843 0.0 1006720
11:00+2зсз71163100 0.0 10071239
14:00+2зсз7106486 0.1 10071258
17:000зсз511705 0.0 1007399
20:00−2з22835 0.0 100713
1 декабря, ср
ср123:00−2ю227191 0.0 100536
02:00+2зюз51252100 0.0 1003794
05:00+3з91552100 0.0 1003953
08:00+3зсз81558100 0.0 1004995
11:00+3зсз6137388 0.1 10071252
14:00+5зсз6136299 0.2 10071535
17:00+3зсз377099 0.0 1007170
20:00+1ю3671100 0.0 1006110